Latest Weather Observations for Rhyll

IDV60901

Issued at 10:25 pm EST Thursday 2 October 2014 (issued every 10 minutes, with the page automatically refreshed every 10 minutes)

About weather observations | Map of Melbourne area stations | Latest observations for Melbourne area | Other Formats
Station Details ID: 086373 Name: RHYLL Lat: -38.46 Lon: 145.31 Height: 13.4 m
Data from the previous 72 hours. | See also: Recent months at Rhyll
Date/Time
EST
Tmp

°C
App
Tmp
°C
Dew
Point
°C
Rel
Hum
%
Delta-T

°C
Wind Press
QNH
hPa
Press
MSL
hPa
Rain
since
9 am
mm
Dir
 
Spd
km/h
Gust
km/h
Spd
kts
Gust
kts
02/10:00pm 11.8 9.6 9.4 85 1.2 WSW 11 17 6 9 1024.1 1024.1 0.0
02/09:30pm 11.8 10.4 9.5 86 1.2 WSW 7 13 4 7 1024.0 1024.0 0.0
02/09:00pm 11.7 10.5 9.6 87 1.1 WSW 6 11 3 6 1024.1 1024.1 0.0
02/08:30pm 12.0 10.4 10.1 88 1.0 WSW 9 19 5 10 1024.1 1024.1 0.0
02/08:00pm 11.8 10.1 9.7 87 1.1 WSW 9 15 5 8 1023.9 1023.9 0.0
02/07:30pm 11.8 9.4 9.9 88 1.0 SW 13 22 7 12 1023.7 1023.7 0.0
02/07:00pm 11.6 8.9 10.2 91 0.7 SW 15 22 8 12 1023.3 1023.3 0.0
02/06:30pm 12.0 8.8 10.1 88 1.0 SW 17 30 9 16 1023.2 1023.2 0.0
02/06:00pm 12.8 10.0 10.0 83 1.4 WSW 15 26 8 14 1023.1 1023.1 0.0
02/05:30pm 13.0 9.9 10.2 83 1.4 SW 17 32 9 17 1022.9 1022.9 0.0
02/05:00pm 13.6 10.2 10.4 81 1.7 SW 19 33 10 18 1022.6 1022.6 0.0
02/04:30pm 14.1 10.4 10.3 78 2.0 SW 20 37 11 20 1022.5 1022.5 0.0
02/04:00pm 14.7 11.0 10.3 75 2.3 SW 20 43 11 23 1022.6 1022.6 0.0
02/03:30pm 14.4 10.9 10.2 76 2.2 WSW 19 39 10 21 1022.5 1022.5 0.0
02/03:00pm 14.8 10.3 10.2 74 2.4 WSW 24 41 13 22 1022.5 1022.5 0.0
02/02:30pm 14.9 10.7 9.9 72 2.6 WSW 22 33 12 18 1022.7 1022.7 0.0
02/02:00pm 14.7 10.7 10.5 76 2.2 WSW 22 41 12 22 1022.8 1022.8 0.0
02/01:30pm 15.5 11.5 10.3 71 2.7 WSW 22 41 12 22 1022.8 1022.8 0.0
02/01:00pm 15.4 11.4 10.4 72 2.6 WSW 22 39 12 21 1023.0 1023.0 0.0
02/12:30pm 15.2 11.8 10.4 73 2.5 W 19 33 10 18 1023.2 1023.2 0.0
02/12:00pm 14.9 11.3 9.9 72 2.6 W 19 32 10 17 1023.2 1023.2 0.0
02/11:30am 13.4 9.5 9.6 78 1.9 WSW 20 35 11 19 1023.6 1023.6 0.0
02/11:00am 13.5 10.7 9.9 79 1.8 W 15 30 8 16 1023.4 1023.4 0.0
02/10:30am 13.8 11.3 9.8 77 2.1 W 13 22 7 12 1023.4 1023.4 0.0
02/10:00am 12.8 10.3 9.8 82 1.5 W 13 26 7 14 1023.4 1023.4 0.0
02/09:30am 13.0 10.4 9.4 79 1.8 WNW 13 22 7 12 1023.3 1023.3 0.0
02/09:00am 13.0 10.4 9.4 79 1.8 W 13 30 7 16 1023.4 1023.4 0.2
02/08:30am 12.5 11.1 9.5 82 1.5 W 7 15 4 8 1023.3 1023.3 0.2
02/08:00am 12.3 10.6 9.7 84 1.3 WNW 9 15 5 8 1023.1 1023.1 0.2
02/07:30am 11.9 9.7 9.3 84 1.3 WNW 11 20 6 11 1022.8 1022.8 0.2
02/07:00am 11.7 9.9 9.4 86 1.2 WNW 9 17 5 9 1022.5 1022.5 0.2
02/06:30am 11.4 9.6 9.3 87 1.1 WNW 9 22 5 12 1022.5 1022.5 0.2
02/06:00am 11.4 9.1 9.1 86 1.1 WNW 11 20 6 11 1022.3 1022.3 0.2
02/05:30am 11.4 9.1 9.0 85 1.2 WNW 11 20 6 11 1022.1 1022.1 0.2
02/05:00am 11.2 9.8 8.9 86 1.1 WNW 6 13 3 7 1022.1 1022.1 0.2
02/04:30am 11.1 8.7 8.7 85 1.2 WNW 11 20 6 11 1022.4 1022.4 0.2
02/04:00am 11.6 9.2 8.6 82 1.5 WNW 11 19 6 10 1022.3 1022.3 0.2
02/03:30am 11.5 9.9 8.7 83 1.4 WNW 7 20 4 11 1022.3 1022.3 0.2
02/03:00am 11.4 8.5 8.3 81 1.5 W 13 24 7 13 1022.6 1022.6 0.2
02/02:30am 11.4 9.3 8.3 81 1.5 WNW 9 20 5 11 1022.8 1022.8 0.2
02/02:00am 11.4 9.3 8.1 80 1.6 WNW 9 19 5 10 1023.0 1023.0 0.2
02/01:30am 11.4 9.6 8.1 80 1.6 WNW 7 15 4 8 1023.4 1023.4 0.2
02/01:00am 11.3 9.1 8.0 80 1.6 WNW 9 19 5 10 1023.6 1023.6 0.2
02/12:30am 11.5 9.8 7.6 77 1.9 WNW 6 17 3 9 1023.8 1023.8 0.2
02/12:00am 11.6 9.6 7.3 75 2.1 WNW 7 15 4 8 1024.0 1024.0 0.2
 
Date/Time
EST
Tmp

°C
App
Tmp
°C
Dew
Point
°C
Rel
Hum
%
Delta-T

°C
Wind Press
QNH
hPa
Press
MSL
hPa
Rain
since
9 am
mm
Dir
 
Spd
km/h
Gust
km/h
Spd
kts
Gust
kts
01/11:30pm 11.8 9.4 7.1 73 2.3 W 9 15 5 8 1024.2 1024.2 0.2
01/11:00pm 11.5 9.4 6.8 73 2.2 W 7 13 4 7 1024.2 1024.2 0.2
01/10:30pm 11.8 9.3 6.7 71 2.4 W 9 19 5 10 1024.5 1024.5 0.2
01/10:00pm 12.1 10.1 7.2 72 2.3 W 7 15 4 8 1024.6 1024.6 0.2
01/09:30pm 12.3 8.8 7.0 70 2.5 W 15 24 8 13 1024.6 1024.6 0.2
01/09:00pm 12.1 9.3 6.8 70 2.5 W 11 19 6 10 1024.6 1024.6 0.2
01/08:30pm 12.3 9.5 7.0 70 2.5 WSW 11 20 6 11 1024.6 1024.6 0.2
01/08:00pm 11.8 9.0 7.1 73 2.2 WSW 11 20 6 11 1024.6 1024.6 0.2
01/07:30pm 11.4 8.8 6.3 71 2.4 WSW 9 19 5 10 1024.2 1024.2 0.2
01/07:00pm 11.4 8.1 6.3 71 2.4 WSW 13 22 7 12 1023.9 1023.9 0.2
01/06:30pm 11.4 8.5 6.3 71 2.4 WSW 11 19 6 10 1023.7 1023.7 0.2
01/06:00pm 11.9 9.0 6.6 70 2.5 WSW 11 24 6 13 1023.7 1023.7 0.2
01/05:30pm 12.5 9.6 6.5 67 2.9 WSW 11 20 6 11 1023.5 1023.5 0.2
01/05:00pm 12.4 8.1 6.9 69 2.6 SW 19 28 10 15 1023.6 1023.6 0.2
01/04:30pm 13.3 9.1 5.9 61 3.5 W 17 33 9 18 1023.4 1023.4 0.2
01/04:00pm 13.1 9.0 6.2 63 3.3 WSW 17 33 9 18 1023.3 1023.3 0.2
01/03:30pm 13.5 9.5 6.6 63 3.3 WSW 17 30 9 16 1023.5 1023.5 0.2
01/03:00pm 12.1 7.8 7.0 71 2.4 WSW 19 41 10 22 1023.7 1023.7 0.2
01/02:30pm 13.5 9.0 6.1 61 3.5 WSW 19 28 10 15 1023.3 1023.3 0.2
01/02:00pm 13.4 8.6 7.2 66 3.0 WSW 22 35 12 19 1023.4 1023.4 0.2
01/01:30pm 12.4 9.3 7.1 70 2.6 W 13 20 7 11 1023.3 1023.3 0.2
01/01:00pm 11.8 6.9 6.7 71 2.4 W 22 46 12 25 1023.7 1023.7 0.2
01/12:30pm 13.6 9.8 6.0 60 3.6 W 15 26 8 14 1023.4 1023.4 0.2
01/12:00pm 13.7 9.1 5.8 59 3.7 SW 19 32 10 17 1023.2 1023.2 0.2
01/11:30am 13.3 8.9 6.6 64 3.2 SW 19 30 10 16 1023.0 1023.0 0.2
01/11:00am 12.8 8.0 5.5 61 3.4 SW 20 35 11 19 1023.1 1023.1 0.2
01/10:30am 13.2 7.7 4.1 54 4.1 SW 22 35 12 19 1022.9 1022.9 0.2
01/10:00am 11.6 8.9 7.3 75 2.1 SW 11 20 6 11 1022.8 1022.8 0.2
01/09:30am 13.4 9.4 6.5 63 3.3 SSW 17 30 9 16 1022.4 1022.4 0.0
01/09:00am 12.7 7.4 5.1 60 3.5 SW 22 33 12 18 1022.0 1022.0 5.6
01/08:30am 12.4 8.3 6.0 65 3.0 SW 17 32 9 17 1021.5 1021.5 5.6
01/08:00am 12.6 7.6 4.6 58 3.6 SW 20 33 11 18 1020.8 1020.8 5.2
01/07:30am 11.5 8.3 5.2 65 2.9 WSW 11 19 6 10 1020.3 1020.3 5.2
01/07:00am 10.3 5.6 5.1 70 2.3 SSW 19 33 10 18 1019.7 1019.7 5.2
01/06:30am 9.7 4.4 4.9 72 2.2 SW 22 46 12 25 1019.3 1019.3 5.2
01/06:00am 9.8 4.4 4.4 69 2.4 SW 22 37 12 20 1018.7 1018.7 5.2
01/05:30am 10.4 5.4 3.7 63 2.9 SW 19 32 10 17 1018.1 1018.1 5.2
01/05:00am 9.9 5.0 3.9 66 2.6 WSW 19 33 10 18 1017.6 1017.6 5.2
01/04:30am 9.0 4.0 3.6 69 2.3 WSW 19 39 10 21 1017.5 1017.5 5.2
01/04:00am 10.3 5.7 3.6 63 2.9 WSW 17 28 9 15 1016.7 1016.7 5.2
01/03:30am 9.4 4.9 4.2 70 2.3 WSW 17 37 9 20 1016.3 1016.3 5.2
01/03:00am 8.2 2.4 4.4 77 1.7 SW 24 44 13 24 1016.0 1016.0 5.2
01/02:30am 9.5 2.5 4.3 70 2.3 SW 30 52 16 28 1015.4 1015.4 5.0
01/02:22am 9.9 3.2 3.9 66 2.6 SW 28 54 15 29 1015.3 1015.3 5.0
01/02:00am 10.2 4.5 2.8 60 3.2 WSW 22 41 12 22 1015.0 1015.0 5.0
01/01:30am 9.9 5.1 4.5 69 2.4 WSW 19 37 10 20 1014.7 1014.7 5.0
01/01:00am 9.3 3.8 4.1 70 2.3 WSW 22 41 12 22 1014.6 1014.6 5.0
01/12:30am 9.1 3.7 4.3 72 2.1 WSW 22 37 12 20 1014.1 1014.1 5.0
01/12:00am 8.3 2.1 4.3 76 1.7 W 26 50 14 27 1013.9 1013.9 5.0
 
Date/Time
EST
Tmp

°C
App
Tmp
°C
Dew
Point
°C
Rel
Hum
%
Delta-T

°C
Wind Press
QNH
hPa
Press
MSL
hPa
Rain
since
9 am
mm
Dir
 
Spd
km/h
Gust
km/h
Spd
kts
Gust
kts
30/11:57pm 8.3 1.7 4.3 76 1.7 W 28 50 15 27 1014.0 1014.0 5.0
30/11:30pm 7.0 1.4 5.2 88 0.8 W 24 43 13 23 1013.3 1013.3 5.0
30/11:18pm 7.9 1.4 4.7 80 1.4 W 28 50 15 27 1013.9 1013.9 4.0
30/11:00pm 8.8 3.6 3.4 69 2.3 W 20 41 11 22 1013.0 1013.0 3.0
30/10:30pm 8.8 3.2 3.6 70 2.2 W 22 43 12 23 1012.9 1012.9 3.0
30/10:00pm 8.1 4.3 5.6 84 1.1 W 15 24 8 13 1012.4 1012.4 3.0
30/09:30pm 10.1 5.2 4.0 66 2.7 W 19 30 10 16 1011.9 1011.9 3.0
30/09:00pm 9.8 5.3 4.2 68 2.5 W 17 30 9 16 1011.6 1011.6 3.0
30/08:30pm 9.4 4.9 4.0 69 2.4 W 17 33 9 18 1011.3 1011.3 3.0
30/08:00pm 9.5 2.3 5.1 74 2.0 W 32 57 17 31 1011.2 1011.2 3.0
30/07:48pm 10.6 4.1 4.9 68 2.6 W 28 59 15 32 1011.0 1011.0 2.8
30/07:30pm 10.9 6.1 4.6 65 2.8 W 19 41 10 22 1010.4 1010.4 2.8
30/07:00pm 11.0 6.3 5.1 67 2.7 W 19 33 10 18 1009.6 1009.6 2.8
30/06:30pm 11.4 6.7 5.1 65 2.9 W 19 41 10 22 1008.9 1008.9 2.8
30/06:00pm 11.5 6.8 6.0 69 2.6 W 20 39 11 21 1008.7 1008.7 2.8
30/05:30pm 11.1 6.8 7.0 76 2.0 W 19 35 10 19 1008.0 1008.0 2.8
30/05:00pm 10.7 6.2 6.8 77 1.8 W 20 37 11 20 1006.9 1006.9 2.8
30/04:30pm 10.0 4.3 6.7 80 1.5 W 26 48 14 26 1006.5 1006.5 2.8
30/04:00pm 10.3 3.9 8.6 89 0.8 WSW 32 52 17 28 1005.6 1005.6 2.6
30/03:30pm 11.7 5.4 9.6 87 1.1 W 33 63 18 34 1005.1 1005.1 1.6
30/03:00pm 13.8 8.6 11.5 86 1.2 W 30 59 16 32 1003.4 1003.4 1.2
30/02:45pm 17.0 11.1 8.9 59 4.2 W 30 67 16 36 1002.1 1002.1 0.0
30/02:30pm 18.7 15.2 10.3 58 4.5 NW 19 39 10 21 1000.9 1000.9 0.0
30/02:00pm 19.1 14.6 9.9 55 4.9 NNW 24 41 13 22 1001.2 1001.2 0.0
30/01:45pm 19.3 14.0 9.8 54 5.1 NNW 28 50 15 27 1001.6 1001.6 0.0
30/01:30pm 19.5 16.0 11.0 58 4.6 NNW 20 37 11 20 1001.8 1001.8 0.0
30/01:00pm 18.6 11.6 11.2 62 4.0 NNW 39 54 21 29 1002.7 1002.7 0.0
30/12:33pm 19.2 14.0 10.2 56 4.8 NNW 28 54 15 29 1003.1 1003.1 0.0
30/12:30pm 19.1 14.5 11.2 60 4.3 NNW 26 41 14 22 1003.3 1003.3 0.0
30/12:00pm 18.8 12.1 11.1 61 4.2 NNW 37 50 20 27 1003.7 1003.7 0.0
30/11:30am 18.6 13.3 11.2 62 4.0 NNW 30 44 16 24 1004.2 1004.2 0.0
30/11:00am 19.0 13.1 10.6 58 4.5 NNW 32 50 17 27 1004.9 1004.9 0.0
30/10:56am 18.8 12.9 10.4 58 4.5 NNW 32 50 17 27 1005.0 1005.0 0.0
30/10:30am 18.8 14.4 11.6 63 4.0 NNW 26 35 14 19 1005.5 1005.5 0.0
30/10:00am 18.3 13.5 11.6 65 3.7 NNW 28 41 15 22 1006.3 1006.3 0.0
30/09:30am 17.0 11.6 10.8 67 3.3 NNW 30 37 16 20 1006.9 1006.9 0.0
30/09:00am 16.8 11.7 10.6 67 3.3 NNW 28 41 15 22 1007.7 1007.7 0.2
30/08:30am 15.9 10.7 10.4 70 2.9 NNW 28 37 15 20 1008.1 1008.1 0.2
30/08:00am 15.4 10.0 10.8 74 2.4 NNW 30 39 16 21 1008.2 1008.2 0.2
30/07:30am 14.8 11.4 11.4 80 1.8 NNW 20 30 11 16 1008.8 1008.8 0.2
30/07:00am 13.9 13.0 10.7 81 1.7 NW 6 19 3 10 1009.3 1009.3 0.2
30/06:30am 13.1 12.6 10.6 85 1.3 NW 4 7 2 4 1009.2 1009.2 0.2
30/06:00am 12.8 12.2 10.5 86 1.2 WNW 4 11 2 6 1008.7 1008.7 0.2
30/05:30am 13.0 12.5 10.7 86 1.2 WNW 4 9 2 5 1008.5 1008.5 0.2
30/05:00am 13.0 12.5 10.9 87 1.1 NW 4 11 2 6 1008.4 1008.4 0.2
30/04:30am 12.8 11.9 11.5 92 0.7 NNW 7 11 4 6 1008.3 1008.3 0.2
30/04:00am 12.0 11.5 10.6 91 0.7 NNW 4 7 2 4 1008.7 1008.7 0.2
30/03:30am 12.3 11.4 10.7 90 0.8 W 6 9 3 5 1008.8 1008.8 0.2
30/03:00am 12.2 11.2 10.4 89 0.9 W 6 7 3 4 1009.0 1009.0 0.2
30/02:30am 12.5 12.7 10.6 88 1.0 CALM 0 0 0 0 1009.2 1009.2 0.2
30/02:00am 12.9 12.7 10.6 86 1.2 SW 2 6 1 3 1009.7 1009.7 0.2
30/01:30am 13.7 13.7 11.2 85 1.3 SW 2 6 1 3 1010.3 1010.3 0.2
30/01:00am 13.7 14.0 11.0 84 1.4 CALM 0 2 0 1 1010.6 1010.6 0.2
30/12:30am 13.4 12.0 10.8 84 1.4 SSW 9 13 5 7 1011.2 1011.2 0.2
30/12:00am 13.5 11.3 10.7 83 1.5 SSW 13 22 7 12 1011.3 1011.3 0.2
 
Date/Time
EST
Tmp

°C
App
Tmp
°C
Dew
Point
°C
Rel
Hum
%
Delta-T

°C
Wind Press
QNH
hPa
Press
MSL
hPa
Rain
since
9 am
mm
Dir
 
Spd
km/h
Gust
km/h
Spd
kts
Gust
kts
29/11:30pm 14.6 12.7 10.4 76 2.2 WSW 11 20 6 11 1011.5 1011.5 0.2
29/11:00pm 15.6 14.5 10.8 73 2.6 W 7 15 4 8 1011.4 1011.4 0.2
29/10:30pm 16.1 10.8 11.1 72 2.7 N 30 35 16 19 1010.9 1010.9 0.2

Latest Capital City Observations: Canberra | Sydney | Melbourne | Brisbane | Adelaide | Perth | Hobart | Darwin

Other Formats:

Comma delimited format used in spreadsheet applications
http://www.bom.gov.au/fwo/IDV60901/IDV60901.94892.axf

JavaScript Object Notation format (JSON) in row-major order
http://www.bom.gov.au/fwo/IDV60901/IDV60901.94892.json